Wind_Speed
48 45 39 38 41 41 41 42 43 42 40 37 35 37 41 43 42 42 43 43 41 39 37 36 36 34 32 33 33 33 32 30 29 29 29 28 29 29 27 25 25 26
48 45 40 38 41 41 41 41 42 43 43 40 37 38 42 45 45 43 44 44 43 41 38 36 35 33 32 33 34 34 32 29 28 28 28 29 30 30 29 26 25 26
49 46 42 40 41 42 41 41 41 44 45 43 40 39 42 46 47 46 45 45 44 42 39 36 34 31 30 32 35 35 32 28 26 25 25 28 29 30 29 28 27 27
49 48 45 43 42 42 42 42 42 45 47 46 43 42 43 46 48 47 46 45 44 42 39 36 34 31 29 31 34 35 32 29 26 24 24 26 28 29 30 30 29 28
50 49 46 44 43 43 43 43 44 46 48 48 46 44 45 47 48 48 47 45 44 41 38 36 35 31 29 30 33 33 32 29 27 25 24 26 28 29 30 30 30 29
50 49 47 44 43 44 44 45 46 47 48 48 48 47 47 48 49 49 47 46 43 40 36 36 36 32 29 30 31 30 30 29 27 26 26 27 28 29 29 29 29 29
49 48 46 43 42 44 45 45 47 48 49 48 49 49 49 49 50 49 47 46 42 38 36 36 36 33 29 30 29 28 28 28 26 26 27 28 29 29 28 27 27 27
49 47 44 41 42 45 46 46 49 50 50 49 49 50 50 49 49 48 46 44 40 37 36 36 37 34 30 30 28 26 27 27 26 27 27 29 30 29 28 27 26 26
52 49 45 42 43 47 48 49 50 51 51 50 50 50 50 49 48 46 44 42 38 36 35 36 38 35 30 29 28 26 26 25 25 28 28 29 30 29 28 27 26 26
56 54 51 47 47 49 51 51 52 52 51 50 50 50 49 47 46 45 43 40 37 35 35 37 38 35 31 29 27 25 26 25 25 29 30 30 29 28 27 27 26 25
59 57 56 54 52 53 53 53 52 52 50 49 49 49 47 46 44 43 41 38 35 34 34 37 39 36 31 28 26 25 25 24 25 29 30 30 29 27 27 26 24 23
60 58 58 57 56 56 55 54 52 50 48 47 48 47 46 44 42 42 41 38 35 34 34 37 40 36 31 28 26 25 25 24 26 29 30 30 28 26 26 24 21 19
61 58 57 57 57 56 55 54 51 49 47 47 47 45 44 42 41 41 40 37 34 34 35 38 40 36 32 28 25 25 24 23 26 29 30 29 27 25 24 21 18 15
59 57 56 55 55 55 54 52 49 47 46 46 45 44 43 42 41 41 39 35 34 34 36 40 40 36 32 27 25 25 23 23 27 29 29 28 26 25 23 19 15 13
56 55 53 53 54 54 53 50 47 45 45 44 44 43 42 41 41 40 37 35 34 34 38 41 39 36 31 27 26 25 23 24 27 28 28 27 25 24 22 18 15 13
54 52 52 52 52 52 51 47 44 43 43 43 43 43 42 41 40 38 37 36 34 36 39 40 38 35 30 27 26 24 23 24 27 28 28 26 25 24 21 19 17 16
51 50 51 52 51 50 47 44 42 42 43 42 42 42 42 40 38 36 36 36 35 37 40 39 37 34 29 26 25 23 23 25 27 28 27 26 24 23 21 20 20 20
50 49 49 50 49 46 43 42 42 42 42 42 42 42 41 39 36 36 37 37 36 38 39 38 36 32 28 26 24 23 24 26 27 27 26 25 24 23 22 22 22 22
48 47 47 47 45 43 41 41 42 43 42 42 42 41 39 37 36 36 37 36 37 37 38 37 34 29 27 25 24 23 25 27 27 27 25 24 24 24 23 24 24 24
47 46 45 44 42 41 41 42 43 43 42 41 40 39 38 37 36 36 36 36 36 37 37 36 32 28 26 24 24 24 26 27 27 26 25 25 25 24 24 25 24 25
46 45 44 42 41 41 42 43 44 42 41 40 39 38 37 36 36 36 35 35 36 36 37 35 31 27 25 24 24 25 26 26 26 26 25 25 25 25 25 25 24 25
45 45 43 42 42 42 43 44 43 41 40 39 38 36 37 37 36 35 35 35 35 36 36 34 29 26 24 24 25 26 26 25 25 25 25 26 26 27 27 26 26 26
45 45 44 44 43 44 44 44 42 40 39 38 36 37 37 37 35 34 35 36 36 36 36 33 28 25 25 25 26 26 26 25 25 25 26 26 27 28 28 28 26 27
46 46 45 44 44 45 44 42 40 39 38 37 37 38 37 35 33 34 36 36 36 36 35 31 26 25 25 26 26 26 26 25 25 26 26 26 27 28 29 28 26 28
48 46 45 44 45 44 42 40 39 38 36 37 38 37 35 34 35 36 37 37 36 35 33 29 26 26 26 26 27 27 26 26 26 26 26 26 26 27 28 27 27 30
47 44 43 43 44 42 40 39 38 36 36 38 38 36 34 35 37 37 37 36 36 34 32 29 27 27 27 27 27 27 26 26 27 26 26 27 27 27 28 28 29 31
Wind_Direction
242 242 241 241 244 247 251 256 262 265 267 269 271 275 278 279 280 282 284 286 288 290 291 292 290 287 286 288 290 289 288 290 291 290 289 289 289 288 288 288 288 290
242 242 240 240 243 248 252 256 261 265 267 269 270 272 275 278 280 282 284 286 288 290 291 290 287 284 284 288 291 289 288 288 287 288 291 292 291 290 291 290 286 283
241 242 241 239 243 249 253 256 260 264 267 269 270 271 272 276 279 281 283 285 287 289 290 288 283 278 280 287 289 290 291 289 285 286 291 293 293 294 294 293 290 286
239 241 241 240 243 248 253 256 258 261 265 268 269 270 271 274 277 280 282 284 286 287 287 285 279 272 275 283 287 289 292 292 288 288 291 292 293 295 295 295 294 292
238 239 240 241 243 248 252 255 257 260 263 267 269 271 272 274 277 280 282 284 285 286 285 281 275 268 270 278 284 288 292 292 291 293 294 294 295 296 297 297 296 295
238 239 239 240 243 248 252 255 258 260 263 266 269 271 272 275 277 280 282 283 284 284 283 278 272 267 266 271 277 285 289 289 291 294 295 296 297 297 297 297 296 295
239 237 236 238 244 249 252 255 258 260 263 266 269 271 273 275 277 279 281 282 282 282 280 276 271 267 265 269 273 279 283 284 288 293 295 297 299 299 299 299 298 296
243 238 234 238 247 251 254 256 258 261 263 266 268 270 272 274 276 278 279 280 280 279 277 274 270 266 266 269 274 278 279 281 287 292 296 300 300 301 302 302 300 300
248 245 242 244 250 254 255 257 259 261 264 266 268 270 272 274 275 277 277 277 277 276 274 271 268 265 265 269 275 277 277 281 288 293 297 300 301 302 303 303 303 304
249 251 251 252 254 255 257 258 260 262 264 266 269 270 271 273 274 275 274 273 273 273 271 269 266 263 264 268 273 275 276 281 288 293 296 299 300 302 303 304 306 307
248 250 253 255 257 257 258 260 261 262 264 266 268 269 270 271 273 273 271 270 270 269 268 266 264 262 262 266 270 272 274 281 287 291 295 297 299 301 303 305 307 310
247 249 252 254 257 258 259 260 260 261 264 265 266 268 269 270 270 269 268 268 267 266 264 262 261 261 261 264 267 268 272 280 286 290 293 296 298 300 302 304 306 310
248 249 251 253 255 257 258 258 259 260 262 263 265 266 267 267 266 264 265 267 266 263 261 259 259 259 260 262 263 265 271 279 285 288 292 294 296 299 301 301 303 306
247 248 250 251 253 254 255 256 257 258 260 261 263 264 264 263 261 262 264 266 265 262 258 256 256 257 258 258 260 264 270 278 283 287 290 292 294 297 298 296 295 296
245 246 247 249 250 252 253 253 254 256 258 260 261 261 259 258 258 261 264 265 264 260 255 254 255 255 256 256 257 263 271 278 282 285 288 290 293 295 295 291 286 282
242 243 244 245 246 248 250 252 253 255 256 257 257 257 255 255 258 261 264 265 263 258 253 252 253 253 254 254 257 264 273 279 282 284 286 289 291 294 292 286 280 278
238 239 240 242 243 245 248 250 252 253 253 254 254 254 254 256 259 262 264 264 261 256 252 250 250 252 252 253 257 266 274 278 281 282 284 287 290 292 290 283 279 278
235 236 237 239 241 243 246 248 249 249 250 250 250 252 254 258 261 262 262 262 258 254 250 249 249 250 251 253 259 268 274 277 279 280 283 285 287 289 287 283 281 282
234 234 235 237 239 241 243 245 246 246 246 247 249 252 256 259 260 260 260 259 255 250 248 249 250 249 249 254 261 269 274 276 277 278 280 282 285 287 285 283 283 285
234 234 234 235 237 239 240 242 244 244 245 246 249 254 257 258 258 258 258 255 251 247 247 249 249 247 249 256 263 270 273 275 276 277 278 279 282 284 283 282 284 286
233 234 234 233 234 236 238 241 242 243 245 248 251 255 256 256 256 256 254 250 246 246 248 248 247 246 250 258 265 270 272 273 275 277 276 277 279 282 282 283 285 288
232 234 233 232 233 235 237 240 241 243 246 250 252 254 254 254 253 251 248 246 245 245 246 247 245 247 252 259 265 269 270 272 276 278 277 278 278 280 282 282 284 289
231 232 232 232 233 235 237 240 242 245 248 251 252 252 252 252 250 246 244 243 244 244 244 245 245 248 255 261 265 266 268 273 278 280 281 281 280 280 281 281 282 289
229 229 230 231 233 235 238 240 243 246 248 250 250 250 250 249 245 241 241 241 242 241 243 244 245 249 256 260 262 264 268 275 280 282 283 282 281 281 281 280 283 291
228 228 229 231 234 237 239 241 244 247 248 248 248 248 246 243 239 238 239 239 239 240 242 244 246 251 257 259 260 264 271 278 281 281 282 282 282 281 280 280 286 295
229 230 231 233 235 237 240 243 245 246 246 246 246 244 241 237 237 237 237 237 238 240 242 245 248 253 256 257 259 265 273 279 280 281 281 282 282 281 281 284 290 298
Height
10733 10736 10740 10743 10743 10743 10744 10745 10746 10747 10749 10750 10751 10750 10749 10748 10749 10750 10749 10750 10751 10752 10754 10753 10751 10749 10748 10746 10744 10743 10742 10741 10738 10736 10734 10734 10734 10734 10734 10734 10731 10728
10729 10733 10737 10740 10740 10740 10741 10742 10743 10744 10745 10746 10748 10748 10746 10744 10744 10746 10746 10746 10747 10748 10750 10750 10748 10747 10745 10742 10741 10740 10740 10740 10737 10735 10733 10732 10731 10730 10730 10730 10730 10728
10725 10729 10733 10736 10736 10736 10737 10739 10740 10741 10740 10742 10744 10745 10743 10741 10740 10741 10742 10742 10743 10743 10745 10746 10745 10744 10742 10740 10737 10736 10736 10737 10736 10734 10732 10730 10728 10728 10727 10727 10727 10726
10721 10725 10728 10731 10732 10733 10734 10735 10736 10737 10737 10737 10740 10741 10740 10738 10737 10737 10738 10739 10739 10740 10741 10741 10741 10741 10740 10738 10735 10732 10732 10732 10732 10732 10731 10729 10727 10726 10725 10724 10724 10723
10717 10721 10724 10726 10728 10730 10730 10731 10732 10733 10733 10734 10735 10737 10736 10735 10734 10734 10734 10735 10735 10736 10737 10737 10737 10737 10737 10735 10733 10730 10728 10728 10728 10728 10728 10728 10726 10724 10723 10722 10721 10720
10713 10716 10719 10721 10724 10726 10726 10727 10728 10729 10730 10731 10731 10732 10732 10731 10730 10730 10730 10731 10732 10732 10732 10732 10732 10733 10733 10732 10731 10729 10726 10725 10725 10725 10725 10725 10724 10722 10721 10719 10718 10717
10707 10710 10714 10717 10720 10721 10723 10723 10724 10725 10726 10727 10728 10728 10728 10728 10727 10727 10727 10727 10728 10729 10728 10727 10727 10728 10729 10728 10728 10727 10724 10723 10722 10722 10722 10722 10721 10720 10718 10717 10715 10713
10701 10705 10709 10713 10715 10717 10718 10720 10720 10721 10722 10724 10725 10724 10724 10724 10723 10723 10723 10723 10724 10725 10724 10723 10723 10723 10724 10724 10724 10724 10721 10720 10719 10718 10719 10718 10717 10716 10714 10713 10712 10710
10696 10700 10705 10709 10711 10712 10714 10716 10716 10717 10718 10720 10721 10720 10720 10720 10719 10719 10720 10720 10721 10721 10720 10719 10718 10719 10720 10721 10721 10720 10718 10717 10716 10715 10715 10715 10714 10712 10711 10710 10709 10707
10694 10698 10700 10704 10706 10708 10709 10710 10712 10713 10715 10716 10716 10716 10715 10716 10715 10715 10716 10716 10717 10718 10717 10715 10714 10715 10717 10717 10717 10717 10715 10715 10714 10712 10712 10712 10711 10710 10708 10707 10705 10703
10691 10695 10697 10700 10701 10703 10704 10705 10706 10709 10711 10712 10712 10711 10711 10712 10712 10711 10712 10713 10714 10714 10713 10711 10710 10711 10713 10714 10714 10713 10712 10712 10711 10710 10709 10709 10708 10707 10705 10704 10702 10700
10688 10692 10694 10696 10697 10698 10699 10699 10701 10704 10706 10707 10707 10706 10706 10707 10707 10707 10708 10709 10710 10710 10709 10707 10706 10707 10709 10710 10710 10710 10709 10709 10708 10708 10707 10706 10706 10704 10703 10701 10700 10698
10684 10688 10690 10692 10692 10693 10694 10695 10697 10700 10702 10702 10702 10702 10702 10702 10703 10704 10704 10705 10706 10706 10705 10702 10702 10703 10705 10707 10707 10706 10706 10706 10706 10705 10704 10704 10703 10702 10701 10699 10698 10696
10679 10682 10685 10686 10687 10687 10688 10690 10693 10695 10697 10697 10697 10698 10698 10698 10699 10699 10700 10701 10702 10701 10700 10698 10698 10700 10701 10703 10703 10703 10703 10703 10703 10702 10702 10701 10700 10699 10698 10697 10696 10695
10673 10676 10679 10680 10681 10681 10683 10685 10689 10690 10691 10692 10692 10692 10693 10694 10694 10695 10696 10697 10697 10697 10695 10694 10694 10696 10698 10699 10700 10699 10700 10700 10700 10700 10699 10698 10697 10696 10695 10695 10694 10692
10666 10669 10672 10673 10674 10675 10677 10681 10684 10685 10686 10687 10687 10687 10688 10689 10690 10691 10692 10692 10692 10692 10690 10690 10691 10693 10695 10696 10696 10696 10697 10697 10697 10697 10696 10695 10694 10693 10692 10692 10691 10690
10660 10663 10666 10667 10668 10670 10673 10676 10678 10679 10680 10681 10682 10682 10683 10685 10686 10687 10687 10687 10687 10686 10685 10686 10687 10689 10691 10692 10692 10693 10693 10694 10694 10693 10693 10692 10691 10690 10689 10689 10688 10687
10654 10658 10660 10662 10664 10666 10669 10671 10672 10673 10675 10676 10677 10677 10679 10681 10682 10682 10681 10682 10682 10681 10681 10682 10684 10686 10688 10688 10689 10689 10690 10690 10690 10690 10690 10689 10688 10687 10686 10685 10685 10684
10649 10652 10655 10657 10660 10662 10665 10666 10667 10668 10669 10671 10672 10673 10675 10676 10677 10676 10676 10677 10677 10676 10677 10678 10681 10684 10685 10684 10685 10686 10686 10687 10687 10686 10686 10685 10684 10684 10683 10682 10681 10680
10645 10647 10650 10653 10656 10658 10660 10661 10661 10663 10665 10666 10668 10669 10670 10671 10671 10672 10672 10672 10672 10672 10673 10675 10678 10680 10681 10680 10681 10682 10683 10683 10683 10683 10682 10682 10681 10680 10679 10679 10678 10677
10641 10643 10645 10648 10651 10654 10655 10656 10656 10659 10660 10662 10664 10665 10665 10666 10667 10667 10667 10667 10668 10669 10670 10672 10675 10677 10676 10677 10678 10678 10679 10679 10679 10679 10678 10678 10677 10677 10676 10675 10674 10673
10637 10638 10641 10644 10647 10649 10650 10651 10652 10655 10657 10658 10659 10660 10661 10661 10662 10662 10662 10662 10664 10666 10667 10668 10671 10673 10672 10673 10674 10675 10675 10675 10675 10675 10674 10674 10674 10673 10672 10672 10671 10670
10632 10634 10636 10639 10642 10644 10645 10647 10649 10651 10653 10654 10655 10656 10656 10657 10658 10658 10658 10659 10661 10662 10663 10665 10668 10668 10669 10670 10671 10671 10671 10672 10671 10671 10670 10670 10670 10669 10668 10668 10667 10667
10627 10629 10632 10635 10637 10639 10641 10644 10646 10648 10649 10650 10650 10651 10652 10653 10654 10654 10654 10656 10657 10659 10660 10661 10664 10665 10665 10666 10667 10667 10668 10668 10667 10667 10667 10666 10666 10665 10664 10664 10664 10663
10621 10625 10628 10631 10633 10635 10638 10640 10642 10644 10645 10645 10646 10647 10648 10649 10649 10649 10651 10652 10654 10655 10656 10658 10660 10661 10662 10663 10664 10664 10664 10664 10664 10663 10663 10662 10662 10661 10660 10659 10660 10659
10618 10622 10624 10626 10629 10632 10634 10636 10638 10639 10640 10640 10642 10643 10644 10645 10644 10645 10647 10649 10650 10652 10653 10655 10657 10658 10659 10660 10660 10661 10661 10660 10659 10659 10659 10658 10657 10657 10656 10655 10655 10654